This demonstration page uses our WeatherBlox Daily Observations layout. Learn more.

Left ArrowRight Arrow

39.01783, -85.05884

Hourly Observations for March 1, 2017

Temp ( °F °C ) Dew Point ( °F °C ) Humidity (%) Winds ( mph kmh ) Pressure ( in mb ) Visibility ( mi km ) Precip ( " mm )
12:52 am 00:52 Cloudy with Nearby Thunderstorms 64 17.8 60 15.6 87 87 S 15 24 29.69 1005 10 16 0.00 0.03
12:59 am 00:59 Cloudy with Thunderstorms 64 17.8 60 15.6 87 87 S 17 28 29.68 1005 8 13 0.00 0.03
1:25 am 01:25 Cloudy with Light Rain 63 17.2 61 16.1 93 93 S 14 22 29.65 1004 6 10 0.14 3.56
1:30 am 01:30 Windy with Storms Likely 64 18 61 16 88 88 S 20 31 29.65 1004 8 13 0.00 0.00
1:50 am 01:50 Windy with Storms Likely 59 15 57 14 94 94 W 33 54 29.74 1007 1 2 0.00 0.00
1:52 am 01:52 Cloudy with Strong Thunderstorms 57 13.9 56 13.3 96 96 WNW 31 50 29.72 1007 1 1 0.21 5.33
2:00 am 02:00 Cloudy with Strong Thunderstorms 57 13.9 56 13.3 96 96 WSW 10 17 29.74 1007 3 5 0.46 11.68
2:28 am 02:28 Cloudy 59 15 59 15 100 100 W 12 19 29.68 1005 10 16 0.49 12.45
2:52 am 02:52 Cloudy 59 15 57 13.9 93 93 SSW 5 7 29.65 1004 10 16 0.49 12.45
3:19 am 03:19 Cloudy with Strong Thunderstorms 59 15 57 13.9 93 93 SW 18 30 29.65 1004 2 2 0.18 4.57
3:34 am 03:34 Cloudy with Thunderstorms 57 14 55 13 94 94 SSW 9 15 29.65 1004 5 8 0.00 0.00
3:52 am 03:52 Cloudy with Thunderstorms 58 14.4 56 13.3 93 93 SSW 9 15 29.60 1002 6 10 0.32 8.13
4:06 am 04:06 Mostly Cloudy with Light Rain 59 15 57 14 94 94 SSW 13 20 29.59 1002 10 16 0.00 0.00
4:52 am 04:52 Cloudy 62 16.7 60 15.6 93 93 S 15 24 29.58 1002 10 16 0.01 0.25
5:17 am 05:17 Cloudy 63 17.2 60 15.6 90 90 SSW 14 22 29.56 1001 10 16 0.00 0.00
5:52 am 05:52 Cloudy 63 17.2 60 15.6 90 90 SW 10 17 29.56 1001 10 16 0.00 0.00
6:16 am 06:16 Cloudy 63 17.2 60 15.6 90 90 SW 12 19 29.56 1001 10 16 0.00 0.00
6:42 am 06:42 Cloudy with Nearby Thunderstorms 63 17 61 16 94 94 SW 16 26 29.50 999 10 16 0.00 0.00
6:50 am 06:50 Windy with Storms Likely 64 18 61 16 88 88 W 28 44 29.56 1001 8 13 0.00 0.00
6:52 am 06:52 Very Windy with Storms Likely 62 16.7 59 15 90 90 WNW 49 80 29.62 1003 8 13 0.00 0.03
6:54 am 06:54 Windy with Storms Likely 57 14 55 13 94 94 NW 36 57 29.65 1004 4 6 0.00 0.00
6:56 am 06:56 Cloudy with Strong Thunderstorms 55 12.8 52 11.1 90 90 NW 32 52 29.65 1004 1 1 0.00 0.03
7:01 am 07:01 Cloudy with Strong Thunderstorms 53 11.7 51 10.6 93 93 NW 25 41 29.65 1004 1 2 0.16 4.06
7:04 am 07:04 Cloudy with Strong Thunderstorms 54 12 52 11 94 94 NW 21 33 29.65 1004 3 4 0.00 0.00
7:10 am 07:10 Windy with Storms Likely 54 12 52 11 94 94 NW 20 31 29.65 1004 4 6 0.00 0.00
7:18 am 07:18 Cloudy with Nearby Thunderstorms 53 11.7 53 11.7 100 100 NW 17 28 29.65 1004 7 11 0.23 5.84
7:29 am 07:29 Cloudy with Light Rain 53 11.7 53 11.7 100 100 WNW 15 24 29.65 1004 8 13 0.24 6.10
7:33 am 07:33 Cloudy with Light Rain 53 11.7 53 11.7 100 100 WNW 17 28 29.68 1005 8 13 0.24 6.10
7:52 am 07:52 Cloudy with Light Rain 54 12.2 53 11.7 97 97 WNW 17 28 29.66 1005 6 10 0.27 6.86
8:52 am 08:52 Cloudy with Light Rain 53 11.7 51 10.6 93 93 SW 8 13 29.71 1006 5 8 0.21 5.33
9:03 am 09:03 Cloudy with Nearby Thunderstorms 54 12 52 11 94 94 SSW 9 15 29.71 1006 4 6 0.00 0.00
9:15 am 09:15 Cloudy with Rain 53 11.7 51 10.6 93 93 SSE 14 22 29.62 1003 4 6 0.11 2.79
9:26 am 09:26 Cloudy with Light Rain 54 12 52 11 94 94 S 12 19 29.62 1003 8 13 0.00 0.00
9:52 am 09:52 Cloudy 54 12.2 51 10.6 90 90 S 10 17 29.61 1003 10 16 0.11 2.79
10:52 am 10:52 Mostly Cloudy 56 13.3 52 11.1 87 87 SSW 16 26 29.59 1002 10 16 0.00 0.00
11:23 am 11:23 Mostly Cloudy 59 15 53 11.7 81 81 SW 16 26 29.59 1002 10 16 0.00 0.00
11:52 am 11:52 Cloudy 59 15 52 11.1 78 78 WSW 18 30 29.61 1003 10 16 0.00 0.00
12:52 pm 12:52 Cloudy 60 15.6 51 10.6 72 72 W 22 35 29.61 1003 10 16 0.00 0.00
1:42 pm 13:42 Cloudy 63 17 50 10 64 64 WSW 22 35 29.59 1002 10 16 0.00 0.00
1:52 pm 13:52 Mostly Cloudy 60 15.6 49 9.4 67 67 WSW 22 35 29.62 1003 10 16 0.00 0.00
2:52 pm 14:52 Cloudy 57 13.9 46 7.8 67 67 W 35 56 29.65 1004 10 16 0.00 0.00
3:52 pm 15:52 Cloudy 53 11.7 43 6.1 69 69 WNW 26 43 29.70 1006 10 16 0.00 0.00
4:52 pm 16:52 Cloudy with Light Rain 49 9.4 41 5 74 74 WNW 35 56 29.76 1008 10 16 0.00 0.03
5:52 pm 17:52 Cloudy 46 7.8 37 2.8 71 71 WNW 29 46 29.80 1009 10 16 0.00 0.03
6:52 pm 18:52 Cloudy 61 16 59 15 94 94 S 13 20 29.85 1011 10 16 0.00 0.00
7:52 pm 19:52 Cloudy 44 6.7 29 -1.7 55 55 W 29 46 29.90 1013 10 16 0.00 0.00
8:52 pm 20:52 Cloudy 44 6.7 31 -0.6 60 60 W 23 37 29.93 1014 10 16 0.00 0.00
9:52 pm 21:52 Cloudy 42 5.6 29 -1.7 60 60 WNW 29 46 29.98 1015 10 16 0.00 0.03
10:52 pm 22:52 Cloudy 41 5 28 -2.2 60 60 WNW 18 30 30.00 1016 10 16 0.00 0.03
11:52 pm 23:52 Cloudy with Light Rain 40 4.4 28 -2.2 63 63 NW 22 35 30.03 1017 10 16 0.00 0.03

Powered by AerisWeather